Dauntless Aviation
Airports Europe Czech Republic
LKPO
PRV

Přerov Air Base

Přerov, CZECH REPUBLIC

Airport Info
Suggest Updated Information for this Airport

Location

Latitude / Longitude: 49°25'32"N / 17°24'16"E
  49°25.548'N / 17°24.282'E
  49.4258 / 17.4047

Nearby radio navigation aids

CK PREROV NDB. 63.6° 2.8nm from CK to field.

Runway Information

Runway 06 /24

Dimensions: 8202 x 196 ft.
Surface: ASP
 
Runway 06
Runway 24
Latitude: 49.421419 49.430439
Longitude: 17.389275 17.420478
Elevation: 663 ft. 663 ft.
Runway true heading: 64.6 244.6
 

Instrument Procedures

  Aerodrome Chart

IAPs (Instrument Approach Procedures)

  ILS/DME Rwy 06
  NDB/DME (GPS) or PAR Rwy 06
  NDB (GPS) or PAR Rwy 06
  POLOM 3A

Departure Procedures

  Instrument Departure Chart HLV 1A - 2Z
  Instrument Departure Chart LUTIM 2A - 2Z
  Instrument Departure Chart MORKO 2Z
  Instrument Departure Chart POLOM 3A
Satellite photo at:
Airport distance calculator
From:
Weather Reports

METAR

LKMT
31.3nm NE
LKMT 230600Z 36006KT 9999 -RA SCT030 OVC044 08/07 Q1012 NOSIG
LKTB
33.3nm SW
LKTB 230600Z 33011KT CAVOK 09/05 Q1012 NOSIG

TAF

LKMT
31.3nm NE
TAF LKMT 230500Z 2306/2412 01010KT 9999 -RA BKN025 TEMPO 2306/2318 SCT005 OVC016 PROB40 TEMPO 2310/2412 01010G20KT -RA BKN012
LKTB
33.3nm SW
TAF LKTB 230500Z 2306/2412 33010KT CAVOK TEMPO 2309/2318 7000 -RA BKN020 PROB30 TEMPO 2310/2412 34010G20KT
Safelog

 

Dauntless Aviation

© 2007-2017 Dauntless Aviation, all rights reserved
Information provided via PilotNav comes from a variety of official and unofficial data sources. As errors are possible, do not use PilotNav for primary flight planning purposes. Verify any information that you receive via PilotNav with current and canonical charts and other official documents. The material in this database is subject to database copyrights held by Dauntless Aviation and may not be copied without the express permission of Dauntless Aviation - licenses for use of part of all of this data are available for purchase; enquire via the Dauntless Aviation helpdesk. A number of mechanisms and markers exist in the database to protect against and identify infringement / copyright. Automated queries against this website are stictly prohibited, and all activity is logged and analyzed.